User: anonymous   Login
Location: Bílinka
(49.3579°N, 14.3767°E)
Time: 02:28:36
(UTC+00:00)
Language:

Cosmos 1455 - Orbit

View from above orbital plane
View from above orbital plane
View from above satellite
View from above satellite

Ground track
Ground track

The orbit data is extracted from the following two-line orbital elements,

1 14032U 83037A   23153.28340959  .00007282  00000-0  27977-3 0  9999
2 14032  82.5123  91.9043 0011795 258.4233 101.5681 15.26202407191472
Epoch (UTC): 02 June 2023 06:48:06
Eccentricity: 0.0011795
inclination: 82.5123°
perigee height: 479 km
apogee height: 495 km
right ascension of ascending node: 91.9043°
argument of perigee: 258.4233°
revolutions per day: 15.26202407
mean anomaly at epoch: 101.5681°
orbit number at epoch: 19147

The dashed part of the orbit path shows where the satellite is in the earth's shadow,  

DLR